Flag for U.S.A. Weather past 2 weeks in Charleston, West Virginia, U.S.A.

Now
81 °F

Broken clouds.


Feels Like: 84 °F
Forecast: 66 / 87 °F
Wind: 7 mph from West

Location: Yeager Airport

Current Time: Aug 4, 2015 at 8:14:35 PM

Latest Report: Aug 4, 2015 at 7:54 PM


Visibility: 10 mi

Pressure: 29.94 "Hg

Humidity: 67%

Dew point: 69 °F

Location of CharlestonLocation

Historic Weather in Charleston — Graph

°F

Charleston temperature yesterday

Maximum temperature yesterday: 87 °F (at 2:54 PM)
Minimum temperature yesterday: 61 °F (at 5:54 AM)
Average temperature yesterday: 75 °F

Past Weeks' High & Low Weather Summary

 TemperatureHumidityPressure
High90 °F (Jul 28, 5:54 PM)100% (Jul 21, 12:54 AM)30.05 "Hg (Jul 21, 12:54 AM)
Low59 °F (Jul 24, 6:54 AM)32% (Aug 1, 3:54 PM)29.73 "Hg (Jul 21, 6:54 AM)
Average75 °F75%29.94 "Hg
* Reported Jul 20 5:54 PM — Aug 4 5:54 PM, Charleston, Weather by CustomWeather, © 2015

Note: Actual official high and low records may vary slightly from our data, if they occured in-between our weather recording intervals... More about our weather records

Advertising

Charleston weather history for previous 24 hours

 ConditionsComfort  
Time TempWeatherWind HumidityBarometerVisibility
5:54 PM
Tue, Aug 4
83 °FBroken clouds.8 mph59%29.94 "Hg10 mi
4:54 PM85 °FBroken clouds.12 mph51%29.93 "Hg10 mi
3:54 PM86 °FScattered clouds.8 mph51%29.93 "Hg10 mi
2:54 PM84 °FBroken clouds.10 mph57%29.95 "Hg10 mi
1:54 PM83 °FBroken clouds.6 mph57%29.96 "Hg10 mi
12:54 PM81 °FScattered clouds.7 mph60%29.98 "Hg10 mi
11:54 AM79 °FScattered clouds.5 mph62%29.98 "Hg10 mi
10:54 AM75 °FOvercast.3 mph69%29.98 "Hg10 mi
9:54 AM73 °FPartly sunny.No wind71%29.98 "Hg10 mi
8:54 AM69 °FPartly sunny.No wind79%29.97 "Hg10 mi
7:54 AM66 °FScattered clouds.No wind87%29.96 "Hg10 mi
6:54 AM63 °FPassing clouds.No wind93%29.96 "Hg10 mi
5:54 AM64 °FClear.No wind87%29.95 "Hg10 mi
4:54 AM66 °FClear.5 mph84%29.93 "Hg10 mi
3:54 AM67 °FClear.No wind79%29.91 "Hg10 mi
2:54 AM69 °FPassing clouds.3 mph70%29.90 "Hg10 mi
1:54 AM72 °FPassing clouds.9 mph61%29.90 "Hg10 mi
12:54 AM74 °FMostly cloudy.6 mph57%29.89 "Hg10 mi
11:54 PM
Mon, Aug 3
78 °FThunderstorms. Partly cloudy.20 mph69%29.88 "Hg10 mi
11:04 PM79 °FThunderstorms. Overcast.5 mph67%29.90 "Hg10 mi
10:54 PM78 °FOvercast.3 mph66%29.88 "Hg10 mi
9:54 PM77 °FPassing clouds.No wind71%29.85 "Hg10 mi
8:54 PM79 °FSunny.No wind67%29.85 "Hg10 mi
Weather by CustomWeather, © 2015

See weather overviewHow to use our weather pages